Location: Brantley
(31.5822°N, 86.2569°W)
Time: 21:03:29
(UTC+00:00)

Vanguard 1 Rocket - Visible Passes

Search period start: 18 February 2026 00:00
Search period end: 28 February 2026 00:00
Orbit: 652 x 4215 km, 34.3° (Epoch: 18 February)

Date Brightness Start Highest point End Pass type
(mag) Time Alt. Az. Time Alt. Az. Time Alt. Az.
18 Feb 10.8 00:52:55 10° WNW 01:13:17 62° SSW 01:38:35 10° SE visible
18 Feb 11.5 03:25:46 10° W 03:44:16 27° SW 03:57:53 17° S visible
18 Feb 10.7 23:39:04 10° WNW 23:56:59 76° SSW 00:23:24 10° SE visible
19 Feb 11.2 02:08:32 10° W 02:28:52 40° SW 02:50:54 10° SSE visible
20 Feb 11.0 00:53:27 10° WNW 01:12:57 54° SW 01:37:44 10° SE visible
20 Feb 11.7 03:27:55 10° W 03:43:46 21° SW 03:59:37 10° S visible
20 Feb 10.7 23:39:36 10° WNW 23:56:54 68° SSW 00:22:51 10° SE visible
21 Feb 11.4 02:09:37 10° W 02:28:23 34° SW 02:49:20 10° SSE visible
22 Feb 11.2 00:54:08 10° WNW 01:12:38 47° SW 01:36:34 10° SSE visible
22 Feb 11.8 03:31:29 10° WSW 03:43:27 16° SW 03:55:37 10° SSW visible
22 Feb 10.9 23:40:11 10° WNW 23:56:48 60° SSW 00:22:04 10° SE visible
23 Feb 11.6 02:11:09 10° W 02:28:02 27° SW 02:47:08 10° S visible
24 Feb 11.4 00:55:04 10° W 01:12:23 39° SW 01:35:02 10° SSE visible
24 Feb 12.0 03:40:19 10° SW 03:43:23 10° SW 03:46:29 10° SW visible
24 Feb 11.0 23:40:52 10° WNW 23:56:44 52° SSW 00:20:59 10° SE visible
25 Feb 11.9 02:13:27 10° W 02:27:51 21° SW 02:44:08 10° S visible
26 Feb 11.6 00:56:18 10° W 01:12:15 32° SW 01:33:04 10° SSE visible
26 Feb 11.2 23:41:43 10° W 23:56:43 44° SSW 00:19:34 10° SSE visible
27 Feb 12.0 02:17:15 10° WSW 02:27:52 15° SW 02:39:38 10° SSW visible
